Location: London
(51.5074°N, 0.1278°W)
Time: 07:32:08
(UTC+00:00)

TIGRISAT - Pass Details

Date: 02 October 2020
Orbit: 606 x 688 km, 97.7° (Epoch: 30 October)

Event Time Altitude Azimuth Distance (km) Brightness Sun altitude
Rises 21:54:45 0° 8° (N) 2,976 ? -30.2°
Reaches altitude 10° 21:57:01 10° 2° (N) 2,075 ? -30.5°
Enters shadow 22:00:44 40° 312° (NW) 981 ? -31.0°
